Location: DARK SKY Beskydy - Park tmavé oblohy, www.darkskybeskydy.cz
(49.4926°N, 18.5016°E)
Time: 05:08:56
(UTC+02:00)

Altair - All Passes

Search period start: 13 July 2024 00:00
Search period end: 23 July 2024 00:00
Orbit: 1502 x 1681 km, 47.2° (Epoch: 12 July)

Date Brightness Start Highest point End Pass type
(mag) Time Alt. Az. Time Alt. Az. Time Alt. Az.
13 Jul - 00:49:23 10° W 00:58:30 73° SSW 01:07:47 10° ESE visible
13 Jul - 02:54:00 10° WNW 03:02:24 42° SW 03:11:00 10° SSE visible
13 Jul - 05:01:14 10° W 05:05:05 13° SW 05:08:59 10° SSW daylight
13 Jul - 18:18:46 10° SSE 18:22:24 13° SE 18:26:01 10° E daylight
13 Jul - 20:16:37 10° SSW 20:25:02 41° SE 20:33:23 10° ENE daylight
13 Jul - 22:19:45 10° WSW 22:28:54 73° SSE 22:38:04 10° E visible
14 Jul - 00:24:11 10° W 00:33:20 75° S 00:42:36 10° ESE visible
14 Jul - 02:28:47 10° WNW 02:37:17 44° SW 02:45:58 10° SSE visible
14 Jul - 04:35:28 10° W 04:40:04 15° SW 04:44:43 10° SSW daylight
14 Jul - 17:54:55 10° SE 17:57:24 11° ESE 17:59:53 10° ESE daylight
14 Jul - 19:51:38 10° SSW 19:59:57 39° SE 20:08:10 10° E daylight
14 Jul - 21:54:34 10° WSW 22:03:44 71° SSE 22:12:52 10° E visible
14 Jul - 23:59:00 10° W 00:08:09 76° S 00:17:24 10° ESE visible
15 Jul - 02:03:35 10° WNW 02:12:10 46° SSW 02:20:56 10° SE visible
15 Jul - 04:09:51 10° W 04:15:02 16° SW 04:20:17 10° SSW visible
15 Jul - 19:26:40 10° SSW 19:34:51 36° SE 19:42:56 10° E daylight
15 Jul - 21:29:25 10° WSW 21:38:33 70° SSE 21:47:40 10° E visible
15 Jul - 23:33:49 10° W 23:42:59 77° S 23:52:13 10° ESE visible
16 Jul - 01:38:23 10° WNW 01:47:03 49° SSW 01:55:52 10° SE visible
16 Jul - 03:44:20 10° W 03:50:00 18° SW 03:55:46 10° SSW visible
16 Jul - 19:01:43 10° SSW 19:09:45 34° SE 19:17:41 10° E daylight
16 Jul - 21:04:15 10° WSW 21:13:24 68° SSE 21:22:28 10° E daylight
16 Jul - 23:08:37 10° W 23:17:48 78° S 23:27:01 10° ESE visible
17 Jul - 01:13:11 10° WNW 01:21:55 51° SSW 01:30:48 10° SE visible
17 Jul - 03:18:52 10° W 03:24:58 20° SW 03:31:09 10° S visible
17 Jul - 18:36:49 10° SSW 18:44:41 32° SE 18:52:25 10° E daylight
17 Jul - 20:39:06 10° WSW 20:48:14 66° SSE 20:57:17 10° E daylight
17 Jul - 22:43:25 10° W 22:52:37 78° S 23:01:50 10° E visible
18 Jul - 00:47:59 10° W 00:56:48 54° SSW 01:05:43 10° SE visible
18 Jul - 02:53:27 10° W 02:59:55 22° SW 03:06:29 10° S visible
18 Jul - 18:11:55 10° SSW 18:19:36 30° SE 18:27:09 10° E daylight
18 Jul - 20:13:57 10° WSW 20:23:04 63° SSE 20:32:05 10° E daylight
18 Jul - 22:18:13 10° W 22:27:26 79° S 22:36:38 10° E visible
19 Jul - 00:22:47 10° W 00:31:40 57° SSW 00:40:38 10° SE visible
19 Jul - 02:28:06 10° W 02:34:52 24° SW 02:41:45 10° S visible
19 Jul - 17:47:04 10° S 17:54:32 28° SE 18:01:52 10° E daylight
19 Jul - 19:48:49 10° SW 19:57:56 61° SSE 20:06:54 10° E daylight
19 Jul - 21:53:01 10° W 22:02:14 79° S 22:11:26 10° E visible
19 Jul - 23:57:35 10° W 00:06:31 59° SSW 00:15:31 10° SE visible
20 Jul - 02:02:45 10° W 02:09:49 26° SW 02:16:59 10° S visible
20 Jul - 17:22:15 10° S 17:29:28 26° SE 17:36:33 10° E daylight
20 Jul - 19:23:42 10° SW 19:32:47 59° SSE 19:41:42 10° E daylight
20 Jul - 21:27:49 10° W 21:37:04 79° S 21:46:14 10° E visible
20 Jul - 23:32:23 10° W 23:41:23 61° SSW 23:50:24 10° SE visible
21 Jul - 01:37:26 10° W 01:44:46 28° SW 01:52:10 10° S visible
21 Jul - 16:57:28 10° S 17:04:25 24° SE 17:11:13 10° E daylight
21 Jul - 18:58:35 10° SW 19:07:38 56° SSE 19:16:31 10° E daylight
21 Jul - 21:02:36 10° W 21:11:52 79° S 21:21:03 10° E visible
21 Jul - 23:07:12 10° W 23:16:14 64° SSW 23:25:16 10° ESE visible
22 Jul - 01:12:09 10° W 01:19:41 30° SW 01:27:18 10° SSE visible
22 Jul - 16:32:44 10° S 16:39:22 22° SE 16:45:51 10° E daylight
22 Jul - 18:33:29 10° SW 18:42:30 54° SSE 18:51:20 10° E daylight
22 Jul - 20:37:24 10° W 20:46:41 78° S 20:55:52 10° E daylight
22 Jul - 22:42:00 10° W 22:51:04 66° SSW 23:00:08 10° ESE visible
